KD6VPH Weather Reports


time (UTC)temp
C
wind
direction
speed
KPH
gust
KPH
rain 1hr
cm
rain 24hr
cm
rain mn
cm
humidity
%
barometer
mb
20260505062508 11 224 0.0 0.0 0.00 0.00 0.00 83 1010.9
20260505061509 11 224 0.0 0.0 0.00 0.00 0.00 82 1010.4
20260505060509 11 224 0.0 0.0 0.00 0.00 0.00 82 1010.5
20260505054509 12 224 0.0 0.0 0.00 0.00 0.00 80 1010.4
20260505053509 12 224 0.0 0.0 0.00 0.00 0.00 80 1010.3
20260505052509 12 224 0.0 0.0 0.00 0.00 0.00 79 1010.4
20260505051509 12 224 0.0 0.0 0.00 0.00 0.00 78 1010.3
20260505050509 13 224 0.0 0.0 0.00 0.00 0.00 77 1010.3
20260505041509 15 224 0.0 0.0 0.00 0.00 0.00 73 1009.9
20260505040509 15 224 0.0 0.0 0.00 0.00 0.00 72 1010.0
20260505035509 15 224 0.0 0.0 0.00 0.00 0.00 71 1009.5
20260505034509 16 224 0.0 0.0 0.00 0.00 0.00 70 1009.6
20260505033509 16 224 0.0 3.2 0.00 0.00 0.00 69 1009.3
20260505032509 17 224 0.0 0.0 0.00 0.00 0.00 68 1009.2
20260505031509 17 224 0.0 1.6 0.00 0.00 0.00 67 1009.2
20260505030509 18 224 0.0 0.0 0.00 0.00 0.00 66 1009.2
20260505025509 18 224 0.0 0.0 0.00 0.00 0.00 65 1009.0
20260505024509 19 224 0.0 3.2 0.00 0.00 0.00 64 1008.9
20260505023509 20 224 0.0 3.2 0.00 0.00 0.00 62 1008.8
20260505022509 20 224 0.0 4.8 0.00 0.00 0.00 61 1008.9
20260505021509 21 283 0.0 0.0 0.00 0.00 0.00 59 1008.8
20260505020509 21 280 0.0 3.2 0.00 0.00 0.00 56 1008.8
20260505015509 22 214 0.0 3.2 0.00 0.00 0.00 55 1008.8
20260505014509 22 231 1.6 6.4 0.00 0.00 0.00 54 1008.8
20260505013509 23 327 0.0 0.0 0.00 0.00 0.00 52 1008.9
20260505012509 23 299 1.6 4.8 0.00 0.00 0.00 50 1008.7
20260505011509 24 341 1.6 6.4 0.00 0.00 0.00 49 1008.7
20260505010509 25 15 1.6 6.4 0.00 0.00 0.00 48 1008.7
20260505005509 25 186 1.6 4.8 0.00 0.00 0.00 47 1008.7
20260505004509 25 226 1.6 3.2 0.00 0.00 0.00 48 1008.7
20260505003509 25 230 1.6 8.0 0.00 0.00 0.00 47 1008.8
20260505001510 25 224 1.6 6.4 0.00 0.00 0.00 47 1008.8
20260505000510 26 143 1.6 3.2 0.00 0.00 0.00 46 1008.7
20260504235510 26 194 1.6 11.3 0.00 0.00 0.00 46 1008.9
20260504234510 26 184 1.6 4.8 0.00 0.00 0.00 46 1009.0
20260504233510 26 333 1.6 8.0 0.00 0.00 0.00 46 1009.0
20260504231510 27 252 3.2 9.7 0.00 0.00 0.00 47 1008.9
20260504225510 27 338 1.6 6.4 0.00 0.00 0.00 47 1008.9
20260504224510 26 316 3.2 6.4 0.00 0.00 0.00 45 1009.0
20260504223510 27 265 1.6 6.4 0.00 0.00 0.00 47 1009.0
20260504222510 27 266 1.6 4.8 0.00 0.00 0.00 47 1009.0
20260504220510 27 300 1.6 3.2 0.00 0.00 0.00 51 1009.0
20260504215510 26 180 0.0 9.7 0.00 0.00 0.00 49 1009.1
20260504214510 26 180 0.0 3.2 0.00 0.00 0.00 52 1009.4
20260504213510 26 332 1.6 1.6 0.00 0.00 0.00 54 1009.3
20260504212510 26 245 1.6 9.7 0.00 0.00 0.00 52 1009.4
20260504211510 25 98 1.6 6.4 0.00 0.00 0.00 54 1009.4
20260504210510 25 81 1.6 3.2 0.00 0.00 0.00 53 1009.4
20260504204618 25 70 1.6 8.0 0.00 0.00 0.00 57 1009.5
20260504204514 25 70 1.6 8.0 0.00 0.00 0.00 57 1009.5
20260504203510 25 1 1.6 4.8 0.00 0.00 0.00 56 1009.5
20260504202510 24 247 1.6 8.0 0.00 0.00 0.00 55 1009.7
20260504201510 24 195 1.6 6.4 0.00 0.00 0.00 58 1009.8
20260504200510 23 201 0.0 3.2 0.00 0.00 0.00 58 1009.8
20260504195510 23 234 1.6 4.8 0.00 0.00 0.00 58 1009.8
20260504193600 22 234 3.2 9.7 0.00 0.00 0.00 60 1009.7
20260504193510 22 234 3.2 9.7 0.00 0.00 0.00 60 1009.7
20260504192510 22 250 1.6 6.4 0.00 0.00 0.00 63 1009.7
20260504191510 22 32 1.6 9.7 0.00 0.00 0.00 62 1009.9
20260504190510 21 86 1.6 3.2 0.00 0.00 0.00 63 1010.0
20260504181510 20 199 1.6 4.8 0.00 0.00 0.00 66 1010.2
20260504140511 8 290 0.0 0.0 0.00 0.00 0.00 89 1008.8
20260504110512 10 290 0.0 0.0 0.00 0.00 0.00 86 1007.8
20260504081512 13 290 0.0 0.0 0.00 0.00 0.00 81 1007.8
20260504080512 13 290 0.0 0.0 0.00 0.00 0.00 80 1007.8